Location: Gairloch Mountain Observatory
(46.1383°N, 60.9640°W)
Time: 07:50:00
(UTC-03:00)

Daily predictions for brighter satellites

Satellite Brightness Start Highest point End
(mag) Time Altitude Azimuth Time Altitude Azimuth Time Altitude Azimuth
USA 238 DEB 4.4 21:04:17 10° SW 21:11:10 62° NW 21:18:08 10° NE
USA 238 4.4 21:04:23 10° SW 21:11:16 62° NW 21:18:15 10° NE
Cosmos 1315 Rocket 3.5 21:09:58 10° SSW 21:13:57 61° WNW 21:18:02 10° N
Cosmos 1825 3.8 21:12:15 10° SE 21:14:53 18° E 21:17:32 10° NE
Gbstr 26 Del rocket 4.3 21:10:41 10° W 21:15:41 45° NNW 21:19:50 10° ENE
Cosmos 1933 Rocket 4.0 21:13:30 10° SSW 21:17:48 67° W 21:22:10 10° N
Resurs 01 Rocket 3.5 21:14:16 10° SSW 21:18:12 31° W 21:22:10 10° NNW
Cosmos 1862 Rocket 4.5 21:14:33 10° NNW 21:18:56 53° W 21:23:17 10° S
Shenzhou-11 Module 3.7 21:17:52 10° WSW 21:20:18 21° SSW 21:22:45 10° SSE
COSMOS 2455 3.1 21:18:17 10° S 21:24:02 49° ESE 21:29:50 10° NE
Helios 1A 3.2 21:21:32 10° S 21:25:42 75° WSW 21:29:55 10° NNW
MetOp-A 4.5 21:21:24 10° SE 21:26:34 52° ENE 21:31:46 10° N
NOSS 3-2 (A) 3.7 21:22:05 10° SW 21:28:08 82° NW 21:34:54 10° NE
Cosmos 1892 2.8 21:25:12 10° SSW 21:29:04 80° W 21:32:54 10° N
ERS-1 Rocket 3.1 21:24:31 10° SSE 21:29:30 64° ENE 21:34:30 10° N
Cosmos 1943 Rocket 3.0 21:26:36 10° SSE 21:31:20 29° ESE 21:36:03 10° NE
Aureole 1 4.5 21:28:36 10° S 21:31:33 48° ESE 21:34:56 10° NNE
Cosmos 2346 Rocket 4.5 21:29:43 10° S 21:35:47 89° WNW 21:41:53 10° N
NOAA 11 4.2 21:32:50 10° SSE 21:38:17 76° ENE 21:43:47 10° N
USA 215 3.3 21:32:26 10° SE 21:39:01 87° SW 21:45:38 10° NW
BREEZE-M DEB (TANK) 2.8 21:37:56 10° WNW 21:40:37 75° NNE 21:49:40 10° ESE
Okean 1-7 3.0 21:43:15 10° N 21:47:41 82° E 21:52:05 10° S
NOSS 3-2 (C) 3.7 21:42:05 10° SW 21:48:09 79° NW 21:54:56 10° NE
Cosmos 1340 3.2 21:44:35 10° N 21:48:13 41° ENE 21:51:08 15° SE
Cosmos 2369 Rocket 2.2 21:43:01 10° SSW 21:48:37 69° ESE 21:54:18 10° NNE
Lacrosse 5 rocket 1.3 21:50:20 10° SSW 21:53:44 44° SE 21:57:15 10° ENE
DNEPR-1 R/B 4.2 21:49:25 10° S 21:54:16 40° ESE 21:58:29 10° NE
Cosmos 1346 Rocket 4.4 21:50:52 10° NNW 21:54:27 34° W 21:58:05 10° SSW
SPOT 1/Viking Rocket 4.0 21:51:13 13° SE 21:55:36 49° ENE 22:00:37 10° N
Cosmos 1703 Rocket 4.2 21:51:33 10° NNW 21:55:54 56° W 22:00:10 10° S
Cosmos 1606 2.6 21:55:09 10° N 21:58:57 82° E 22:02:16 13° S
SL-08 RB Rocket 3.9 21:56:52 14° SSE 22:00:53 65° ENE 22:05:31 10° N
GEOS 3 Rocket 4.2 21:57:00 13° ESE 22:01:29 48° NE 22:06:31 10° NNW
Meteor 1-10 Rocket 4.4 21:55:53 10° N 22:01:53 90° SW 22:07:48 10° S
Meteor 1-27 Rocket 4.0 21:56:30 10° N 22:02:14 57° ENE 22:06:47 16° SSE
Cosmos 1269 Rocket 4.0 21:58:46 10° NNW 22:04:06 76° ENE 22:08:19 16° SSE
CENTAUR R/B 2.6 22:00:26 10° SSW 22:06:19 57° ESE 22:13:02 10° NE
Cosmos 372 Rocket 4.0 22:03:03 10° S 22:08:04 56° ESE 22:13:04 10° NNE
Cosmos 1733 Rocket 3.6 22:08:49 18° SSE 22:11:31 38° E 22:15:31 10° NNE
ISS -3.9 22:08:24 10° SW 22:11:37 65° SSE 22:14:51 10° ENE
ATLAS 5 CENTAUR R/B 2.4 22:07:07 10° NW 22:13:02 86° NE 22:17:56 19° SE
Cosmos 1125 Rocket 3.4 22:08:24 10° SSW 22:13:37 75° ESE 22:18:51 10° NNE
Terra 2.7 22:10:55 18° ESE 22:13:52 34° ENE 22:18:10 10° N
Meteor 2-6 Rocket 4.5 22:08:52 10° NNW 22:14:48 79° W 22:20:29 11° S
Cosmos 1869 Rocket 4.3 22:13:10 10° SSW 22:17:24 53° WNW 22:21:42 10° N
Cosmos 1437 4.1 22:20:57 10° NNE 22:23:42 26° ENE 22:24:32 23° E
SPOT 5 3.2 22:19:28 14° S 22:24:05 76° WSW 22:29:25 10° NNW
Tiangong 2 3.4 22:23:31 10° WSW 22:25:00 13° SSW 22:25:25 12° SSW
Aureole 3 4.2 22:23:55 10° SW 22:26:44 34° WNW 22:29:32 10° N
Cosmos 1867 4.1 22:23:23 10° NNW 22:28:43 50° NE 22:32:17 20° ESE
ARGOS 3.6 22:24:50 12° S 22:29:41 59° W 22:35:01 10° NNW
Cosmos 1346 4.4 22:27:30 10° NNE 22:29:43 22° ENE 22:29:52 22° ENE
Cosmos 1782 4.1 22:26:52 10° NNW 22:30:36 38° W 22:34:14 10° SSW
Cosmos 1656 Rocket 4.1 22:28:45 19° SSE 22:32:05 40° ESE 22:37:12 10° NE
H-2A R/B 2.2 22:32:37 18° S 22:36:42 76° WSW 22:42:03 10° NNW
Alouette 2 Rocket 4.5 22:32:00 10° S 22:39:54 70° E 22:44:55 10° NNE
Lacrosse 4 Rocket 1.8 22:37:41 10° NW 22:42:09 64° WSW 22:44:24 28° S
CARTOSAT-1 3.6 22:42:09 30° SE 22:44:10 64° ENE 22:48:28 10° N
Cosmos 2344 3.6 22:37:01 10° SSW 22:44:34 69° ESE 22:53:09 10° NE
Cosmos 1674 Rocket 3.4 22:41:24 10° N 22:45:46 80° E 22:47:47 31° SSE
Cosmos 494 Rocket 4.1 22:41:11 10° NNW 22:46:25 66° ENE 22:49:02 29° SE
Cosmos 1408 4.3 22:43:12 10° SW 22:46:36 33° WNW 22:50:01 10° N
Cosmos 1092 Rocket 4.1 22:42:43 22° SSE 22:46:39 59° E 22:52:40 10° NNE
Cosmos 1378 Rocket 4.0 22:43:02 10° N 22:47:19 47° ENE 22:48:59 31° SE
Nadezhda 4 Rocket 3.9 22:43:21 15° S 22:48:34 85° E 22:54:46 10° N
Cosmos 1825 3.8 22:46:47 10° SW 22:50:14 33° WNW 22:53:41 10° N
Cosmos 1862 3.8 22:48:46 16° SSW 22:51:53 58° WNW 22:55:49 10° N
Cosmos 2227 Rocket 3.8 22:49:25 10° N 22:54:01 25° NE 22:57:42 14° E
ATLAS CENTAUR R/B 3.1 22:56:48 16° E 22:56:48 16° E 22:58:08 10° ENE
Cosmos 2219 3.4 22:53:06 10° NNW 22:58:49 62° ENE 23:01:41 29° SE
CZ-2C R/B 4.4 22:57:01 10° NE 22:59:48 14° E 23:00:15 14° E
H-2A R/B 2.1 23:00:01 39° SE 23:01:17 60° ENE 23:05:22 10° N
Gbstr 26 Del rocket 3.9 22:58:50 10° WNW 23:03:13 44° N 23:06:11 16° E
CZ-4B R/B 4.1 23:00:39 10° NNE 23:05:12 34° E 23:06:09 31° ESE
COSMOS 2455 4.4 23:04:39 10° WSW 23:10:10 36° NW 23:15:42 10° NNE
Cosmos 1812 3.0 23:06:33 10° N 23:10:21 50° ENE 23:10:59 45° ESE
Cosmos 1943 Rocket 3.1 23:09:28 10° SW 23:14:51 47° WNW 23:20:13 10° NNE
Okean 3 3.5 23:13:35 10° NNW 23:17:46 75° W 23:19:00 44° S
CZ-4C R/B 4.0 23:17:30 38° ESE 23:18:30 46° ENE 23:22:30 10° N
Meteor 1-18 Rocket 4.4 23:13:28 10° N 23:19:09 63° ENE 23:21:26 36° SE
DMSP B5D2-2 4.5 23:16:00 10° N 23:21:08 61° WNW 23:25:06 17° SSW
Cosmos 1908 Rocket 3.5 23:21:26 40° SSW 23:23:02 86° WNW 23:27:31 10° N
DELTA 2 DEB (DPAF) 4.3 23:22:02 44° SE 23:23:11 59° ENE 23:27:36 10° N
Okean 1 4.0 23:19:28 10° N 23:23:15 38° ENE 23:23:41 37° E
IGS 5A 4.0 23:21:58 35° SSW 23:23:19 51° W 23:27:23 10° NNW
Cosmos 1633 4.1 23:25:05 24° ENE 23:25:05 24° ENE 23:27:26 10° NE
Okean 2 Rocket 3.5 23:28:08 42° ESE 23:28:35 44° E 23:32:49 10° NNE
Milstar 3 4.3 23:22:40 10° SW 23:27:31 20° SSW 23:27:31 20° SSW
Cosmos 405 Rocket 2.5 23:26:45 10° N 23:30:28 71° ENE 23:30:40 69° ESE
Cosmos 2251 Rocket 3.7 23:26:44 10° NNW 23:31:56 64° WSW 23:33:44 39° S
Lacrosse 5 rocket 2.9 23:29:44 10° W 23:33:01 31° NNW 23:36:25 10° NE
Cosmos 2369 Rocket 4.5 23:28:40 10° W 23:33:12 24° NW 23:37:47 10° N
deb Chang Zheng 4 3.5 23:34:41 10° NNE 23:39:10 88° WNW 23:40:20 49° SSW
GEOS 3 Rocket 4.5 23:38:07 31° SSW 23:39:36 37° WSW 23:44:26 10° NW
PSLV R/B 4.1 23:40:49 41° NW 23:40:49 41° NW 23:42:53 10° NNW
Cosmos 1655 Rocket 3.9 23:44:22 39° S 23:46:50 79° E 23:53:06 10° N
ISS -2.2 23:45:13 10° W 23:48:16 35° NNW 23:51:19 10° ENE
Cosmos 2297 Rocket 2.9 23:43:44 10° NNW 23:49:13 46° ENE 23:51:27 31° ESE
Cosmos 1782 Rocket 3.6 23:49:18 53° SSW 23:50:15 76° W 23:54:40 10° N
ARGOS Delta rocket 3.6 23:46:39 10° N 23:51:13 84° WNW 23:52:08 56° SSW
Cosmos 1697 Rocket 4.5 23:51:33 16° E 23:51:33 16° E 23:54:34 10° ENE
Terra 3.2 23:49:48 23° SW 23:51:38 30° W 23:55:49 10° NW
Sich 1 Rocket 4.4 23:50:27 31° SW 23:52:10 46° WNW 23:56:27 10° N
